This demonstration page uses our WeatherBlox Daily Observations layout. Learn more.

Left ArrowRight Arrow

39.08367, -84.50855

Hourly Observations for May 4, 2017

Temp ( °F °C ) Dew Point ( °F °C ) Humidity (%) Winds ( mph kmh ) Pressure ( in mb ) Visibility ( mi km ) Precip ( " mm )
12:53 am 00:53 Mostly Clear 52 11.1 46 7.8 80 80 NE 6 9 30.03 1017 10 16.0934 N/A
1:53 am 01:53 Mostly Cloudy 53 11.7 45 7.2 74 74 NE 8 13 29.99 1016 10 16.0934 N/A
2:53 am 02:53 Partly Cloudy 53 11.7 43 6.1 69 69 NE 8 13 29.95 1014 10 16.0934 N/A
3:53 am 03:53 Mostly Clear 52 11.1 43 6.1 72 72 NNE 6 9 29.91 1013 10 16.0934 N/A
4:53 am 04:53 Mostly Clear 51 10.6 44 6.7 77 77 NE 6 9 29.87 1012 10 16.0934 N/A
5:53 am 05:53 Partly Cloudy 51 10.6 44 6.7 77 77 NNE 5 7 29.85 1011 10 16.0934 N/A
6:53 am 06:53 Cloudy with Light Rain 51 10.6 45 7.2 80 80 NNE 9 15 29.82 1010 10 16.0934 N/A
7:53 am 07:53 Cloudy with Light Rain 52 11.1 45 7.2 77 77 NNE 8 13 29.81 1010 10 16.0934 N/A
8:53 am 08:53 Cloudy with Light Rain 51 10.6 48 8.9 89 89 N 5 7 29.84 1011 7 11.26538 0.01 0.254
9:53 am 09:53 Cloudy with Light Rain 51 10.6 49 9.4 92 92 NE 8 13 29.84 1011 10 16.0934 0.03 0.762
10:53 am 10:53 Cloudy with Light Rain 51 10.6 50 10 96 96 ENE 10 17 29.8 1009 6 9.65604 0.02 0.508
11:53 am 11:53 Cloudy with Light Rain 52 11.1 51 10.6 97 97 NE 5 7 29.79 1009 3 4.82802 0.03 0.762
12:00 pm 12:00 Cloudy with Rain 52 11 52 11 100 100 NE 7 11 29.83 1010 2 3.21868 N/A
12:53 pm 12:53 Cloudy with Light Rain 54 12.2 54 12.2 100 100 NE 6 9 29.75 1007 5 8.0467 0.07 1.778
1:53 pm 13:53 Cloudy with Light Rain 57 13.9 54 12.2 90 90 ENE 5 7 29.72 1007 10 16.0934 N/A
2:53 pm 14:53 Cloudy 58 14.4 56 13.3 93 93 N 3 6 29.7 1006 10 16.0934 N/A
3:53 pm 15:53 Cloudy with Light Rain 59 15 57 13.9 93 93 N N/A 29.7 1006 10 16.0934 N/A
4:53 pm 16:53 Cloudy with Light Rain 61 16.1 59 15 93 93 N N/A 29.7 1006 5 8.0467 0.04 1.016
5:53 pm 17:53 Cloudy with Light Rain 61 16.1 60 15.6 97 97 N N/A 29.69 1005 5 8.0467 0.05 1.27
6:53 pm 18:53 Cloudy with Light Rain 61 16.1 61 16.1 100 100 NE 5 7 29.66 1004 5 8.0467 0.02 0.508
7:53 pm 19:53 Cloudy with Mist and Fog 60 15.6 60 15.6 100 100 ENE 5 7 29.63 1003 6 9.65604 0.03 0.762
8:53 pm 20:53 Cloudy with Light Rain 60 15.6 60 15.6 100 100 E 5 7 29.63 1004 10 16.0934 N/A
9:53 pm 21:53 Cloudy with Light Rain 60 15.6 59 15 96 96 NNE 8 13 29.63 1004 9 14.48406 0.02 0.508
10:53 pm 22:53 Cloudy with Light Rain 59 15 59 15 100 100 ENE 6 9 29.63 1003 6 9.65604 0.05 1.27
11:10 pm 23:10 Cloudy with Light Rain 59 15 57 14 94 94 NE 7 11 29.62 1003 6 9.65604 N/A
11:53 pm 23:53 Cloudy with Light Rain 58 14.4 58 14.4 100 100 NE 9 15 29.59 1002 8 12.87472 0.04 1.016

Powered by AerisWeather